Location: Unspecified
(0.0000°N, 0.0000°E)
Time: 17:49:31
(UTC+00:00)

STARLINK 1012 - Pass Details

Date: 19 January 2020
Orbit: 348 x 352 km, 53.0° (Epoch: 18 January)

Event Time Altitude Azimuth Distance (km) Brightness Sun altitude
Exits shadow 04:44:17 29° 40° (NE) 661 4.2 -20.1°
Drops below altitude 10° 04:45:52 10° 37° (NE) 1,294 5.7 -19.8°
Sets 04:47:52 0° 36° (NE) 2,131 6.8 -19.3°
